Location: Launay
(47.2429°N, 1.5727°E)
Time: 14:15:35
(UTC+00:00)

ARIANE 5 R/B - Pass Details

Date: 19 May 2025
Orbit: 614 x 648 km, 98.0° (Epoch: 16 June)

Event Time Altitude Azimuth Distance (km) Brightness Sun altitude
Exits shadow 23:01:18 61° 207° (SSW) 703 2.5 -21.9°
Maximum altitude 23:01:52 71° 258° (WSW) 658 2.6 -21.9°
Drops below altitude 10° 23:06:13 10° 342° (NNW) 2,002 6.3 -22.0°
Sets 23:08:26 0° 345° (NNW) 2,918 7.5 -22.1°
